"Sample Date","Sample Time","Sample Value","Units","Flow Rate","Sample Interval","Number Channels","Micron Size 0","Counts/Channel 0","Micron Size 1","Counts/Channel 1","Micron Size 2","Counts/Channel 2","Micron Size 3","Counts/Channel 3","Micron Size 4","Counts/Channel 4","Micron Size 5","Counts/Channel 5","Micron Size 6","Counts/Channel 6","Micron Size 7","Counts/Channel 7","Micron Size 8","Counts/Channel 8","Micron Size 9","Counts/Channel 9","Micron Size 10","Counts/Channel 10","Micron Size 11","Counts/Channel 11","Micron Size 12","Counts/Channel 12","Micron Size 13","Counts/Channel 13","Micron Size 14","Counts/Channel 14","Micron Size 15","Counts/Channel 15","Micron Size 16","Counts/Channel 16","Micron Size 17","Counts/Channel 17","Micron Size 18","Counts/Channel 18","Micron Size 19","Counts/Channel 19","Micron Size 20","Counts/Channel 20","Micron Size 21","Counts/Channel 21","Micron Size 22","Counts/Channel 22","Micron Size 23","Counts/Channel 23","Micron Size 24","Counts/Channel 24","Micron Size 25","Counts/Channel 25","Micron Size 26","Counts/Channel 26","Micron Size 27","Counts/Channel 27","Micron Size 28","Counts/Channel 28","Micron Size 29","Counts/Channel 29","Micron Size 30","Counts/Channel 30","Micron Size 31","Counts/Channel 31"
"04/03/08","05:00:03",28511.000,"cc",28307.016,6.00,6,0.100,24502.000,0.200,1341.000,0.300,996.000,0.500,1248.000,1.000,424.000,5.000,0
"04/03/08","05:00:09",28266.000,"cc",28283.523,6.00,6,0.100,24270.000,0.200,1377.000,0.300,1026.000,0.500,1167.000,1.000,426.000,5.000,0
"04/03/08","05:00:15",28545.000,"cc",28375.691,6.00,6,0.100,24222.000,0.200,1396.000,0.300,1072.000,0.500,1374.000,1.000,481.000,5.000,0
"04/03/08","05:00:21",28689.000,"cc",28350.211,6.00,6,0.100,24588.000,0.200,1283.000,0.300,1041.000,0.500,1302.000,1.000,475.000,5.000,0
"04/03/08","05:00:27",28425.000,"cc",28341.570,6.00,6,0.100,24373.000,0.200,1275.000,0.300,1037.000,0.500,1331.000,1.000,409.000,5.000,0
"04/03/08","05:00:33",28162.000,"cc",28245.945,6.00,6,0.100,24240.000,0.200,1305.000,0.300,915.000,0.500,1252.000,1.000,450.000,5.000,0
"04/03/08","05:00:39",28424.000,"cc",28210.457,6.00,6,0.100,24435.000,0.200,1274.000,0.300,997.000,0.500,1260.000,1.000,458.000,5.000,0
"04/03/08","05:00:45",28319.000,"cc",28317.369,6.00,6,0.100,24410.000,0.200,1220.000,0.300,969.000,0.500,1249.000,1.000,471.000,5.000,0
"04/03/08","05:00:51",28025.000,"cc",28378.895,6.00,6,0.100,24158.000,0.200,1273.000,0.300,982.000,0.500,1169.000,1.000,443.000,5.000,0
"04/03/08","05:00:57",28345.000,"cc",28235.072,6.00,6,0.100,24403.000,0.200,1294.000,0.300,1001.000,0.500,1221.000,1.000,426.000,5.000,0
"04/03/08","05:01:03",28405.000,"cc",28253.432,6.00,6,0.100,24381.000,0.200,1275.000,0.300,993.000,0.500,1287.000,1.000,469.000,5.000,0
"04/03/08","05:01:09",28338.000,"cc",28336.572,6.00,6,0.100,24484.000,0.200,1300.000,0.300,964.000,0.500,1203.000,1.000,387.000,5.000,0
"04/03/08","05:01:15",28364.000,"cc",28295.000,6.00,6,0.100,24303.000,0.200,1291.000,0.300,1047.000,0.500,1283.000,1.000,440.000,5.000,0
"04/03/08","05:01:21",28586.000,"cc",28336.373,6.00,6,0.100,24477.000,0.200,1365.000,0.300,1062.000,0.500,1260.000,1.000,422.000,5.000,0
"04/03/08","05:01:27",28716.000,"cc",28321.090,6.00,6,0.100,24474.000,0.200,1441.000,0.300,1062.000,0.500,1302.000,1.000,437.000,5.000,0
"04/03/08","05:01:33",28355.000,"cc",28382.344,6.00,6,0.100,24146.000,0.200,1351.000,0.300,1060.000,0.500,1360.000,1.000,438.000,5.000,0
"04/03/08","05:01:39",28331.000,"cc",28264.662,6.00,6,0.100,24187.000,0.200,1313.000,0.300,1007.000,0.500,1353.000,1.000,471.000,5.000,0
"04/03/08","05:01:45",28365.000,"cc",28280.561,6.00,6,0.100,24343.000,0.200,1317.000,0.300,981.000,0.500,1281.000,1.000,443.000,5.000,0
"04/03/08","05:01:51",28300.000,"cc",28353.100,6.00,6,0.100,24330.000,0.200,1377.000,0.300,939.000,0.500,1257.000,1.000,397.000,5.000,0
"04/03/08","05:01:57",28255.000,"cc",28349.949,6.00,6,0.100,24129.000,0.200,1408.000,0.300,994.000,0.500,1260.000,1.000,464.000,5.000,0
"04/03/08","05:02:03",28213.000,"cc",28420.074,6.00,6,0.100,24290.000,0.200,1306.000,0.300,936.000,0.500,1265.000,1.000,416.000,5.000,0
"04/03/08","05:02:09",27702.000,"cc",28229.332,6.00,6,0.100,23937.000,0.200,1233.000,0.300,929.000,0.500,1233.000,1.000,370.000,5.000,0
"04/03/08","05:02:15",28315.000,"cc",28246.449,6.00,6,0.100,24337.000,0.200,1317.000,0.300,996.000,0.500,1255.000,1.000,410.000,5.000,0
"04/03/08","05:02:21",28704.000,"cc",28327.852,6.00,6,0.100,24582.000,0.200,1376.000,0.300,1016.000,0.500,1256.000,1.000,474.000,5.000,0
"04/03/08","05:02:27",28389.000,"cc",28345.623,6.00,6,0.100,24251.000,0.200,1449.000,0.300,1020.000,0.500,1267.000,1.000,402.000,5.000,0
"04/03/08","05:02:33",28362.000,"cc",28365.455,6.00,6,0.100,24311.000,0.200,1357.000,0.300,995.000,0.500,1290.000,1.000,409.000,5.000,0
"04/03/08","05:02:39",28683.000,"cc",28380.238,6.00,6,0.100,24486.000,0.200,1403.000,0.300,1072.000,0.500,1263.000,1.000,459.000,5.000,0
"04/03/08","05:02:45",28185.000,"cc",28294.137,6.00,6,0.100,24251.000,0.200,1275.000,0.300,963.000,0.500,1290.000,1.000,406.000,5.000,0
"04/03/08","05:02:51",28614.000,"cc",28365.078,6.00,6,0.100,24474.000,0.200,1388.000,0.300,1074.000,0.500,1195.000,1.000,483.000,5.000,0
"04/03/08","05:02:57",28265.000,"cc",28197.309,6.00,6,0.100,24172.000,0.200,1402.000,0.300,992.000,0.500,1247.000,1.000,452.000,5.000,0
"04/03/08","05:03:03",28103.000,"cc",28328.168,6.00,6,0.100,24138.000,0.200,1321.000,0.300,999.000,0.500,1235.000,1.000,410.000,5.000,0
"04/03/08","05:03:09",27989.000,"cc",28264.190,6.00,6,0.100,24049.000,0.200,1342.000,0.300,985.000,0.500,1221.000,1.000,392.000,5.000,0
"04/03/08","05:03:15",28323.000,"cc",28261.412,6.00,6,0.100,24488.000,0.200,1325.000,0.300,969.000,0.500,1170.000,1.000,371.000,5.000,0
"04/03/08","05:03:21",28267.000,"cc",28320.088,6.00,6,0.100,24417.000,0.200,1304.000,0.300,901.000,0.500,1246.000,1.000,399.000,5.000,0
"04/03/08","05:03:27",28226.000,"cc",28294.754,6.00,6,0.100,24218.000,0.200,1418.000,0.300,1007.000,0.500,1178.000,1.000,405.000,5.000,0
"04/03/08","05:03:33",28209.000,"cc",28406.621,6.00,6,0.100,24231.000,0.200,1374.000,0.300,1012.000,0.500,1205.000,1.000,387.000,5.000,0
"04/03/08","05:03:39",27695.000,"cc",28247.488,6.00,6,0.100,23836.000,0.200,1341.000,0.300,1007.000,0.500,1135.000,1.000,376.000,5.000,0
"04/03/08","05:03:45",28084.000,"cc",28338.152,6.00,6,0.100,24232.000,0.200,1276.000,0.300,912.000,0.500,1234.000,1.000,430.000,5.000,0
"04/03/08","05:03:51",28134.000,"cc",28288.604,6.00,6,0.100,24226.000,0.200,1353.000,0.300,968.000,0.500,1225.000,1.000,362.000,5.000,0
"04/03/08","05:03:57",28013.000,"cc",28264.898,6.00,6,0.100,24129.000,0.200,1381.000,0.300,963.000,0.500,1169.000,1.000,371.000,5.000,0
"04/03/08","05:04:03",27819.000,"cc",28325.291,6.00,6,0.100,24006.000,0.200,1312.000,0.300,935.000,0.500,1194.000,1.000,372.000,5.000,0
"04/03/08","05:04:09",27910.000,"cc",28319.500,6.00,6,0.100,24080.000,0.200,1321.000,0.300,997.000,0.500,1151.000,1.000,361.000,5.000,0
"04/03/08","05:04:15",27528.000,"cc",28404.400,6.00,6,0.100,23828.000,0.200,1267.000,0.300,946.000,0.500,1128.000,1.000,359.000,5.000,0
"04/03/08","05:04:21",27587.000,"cc",28348.057,6.00,6,0.100,23762.000,0.200,1285.000,0.300,999.000,0.500,1168.000,1.000,373.000,5.000,0
"04/03/08","05:04:27",27465.000,"cc",28384.770,6.00,6,0.100,23754.000,0.200,1311.000,0.300,949.000,0.500,1092.000,1.000,359.000,5.000,0
"04/03/08","05:04:33",27484.000,"cc",28359.014,6.00,6,0.100,23700.000,0.200,1271.000,0.300,952.000,0.500,1186.000,1.000,375.000,5.000,0
"04/03/08","05:04:39",28154.000,"cc",28456.590,6.00,6,0.100,24264.000,0.200,1304.000,0.300,998.000,0.500,1173.000,1.000,415.000,5.000,0
"04/03/08","05:04:45",28028.000,"cc",28432.656,6.00,6,0.100,24130.000,0.200,1353.000,0.300,923.000,0.500,1226.000,1.000,396.000,5.000,0
"04/03/08","05:04:51",27745.000,"cc",28246.148,6.00,6,0.100,23931.000,0.200,1328.000,0.300,954.000,0.500,1120.000,1.000,412.000,5.000,0
"04/03/08","05:04:57",27831.000,"cc",28434.252,6.00,6,0.100,23830.000,0.200,1417.000,0.300,996.000,0.500,1213.000,1.000,375.000,5.000,0
"04/03/08","05:05:03",27876.000,"cc",28323.916,6.00,6,0.100,23863.000,0.200,1403.000,0.300,967.000,0.500,1280.000,1.000,363.000,5.000,0
"04/03/08","05:05:09",28122.000,"cc",28408.037,6.00,6,0.100,24131.000,0.200,1332.000,0.300,1017.000,0.500,1278.000,1.000,364.000,5.000,0
"04/03/08","05:05:15",27465.000,"cc",28341.707,6.00,6,0.100,23758.000,0.200,1287.000,0.300,943.000,0.500,1117.000,1.000,360.000,5.000,0
"04/03/08","05:05:21",27857.000,"cc",28277.647,6.00,6,0.100,24118.000,0.200,1305.000,0.300,959.000,0.500,1133.000,1.000,342.000,5.000,0
"04/03/08","05:05:27",27889.000,"cc",28382.543,6.00,6,0.100,24087.000,0.200,1291.000,0.300,984.000,0.500,1149.000,1.000,378.000,5.000,0
"04/03/08","05:05:33",27830.000,"cc",28371.100,6.00,6,0.100,23915.000,0.200,1360.000,0.300,997.000,0.500,1191.000,1.000,367.000,5.000,0
"04/03/08","05:05:39",27828.000,"cc",28295.723,6.00,6,0.100,24006.000,0.200,1296.000,0.300,1006.000,0.500,1167.000,1.000,353.000,5.000,0
"04/03/08","05:05:45",27919.000,"cc",28352.020,6.00,6,0.100,24077.000,0.200,1310.000,0.300,972.000,0.500,1221.000,1.000,339.000,5.000,0
"04/03/08","05:05:51",27694.000,"cc",28295.850,6.00,6,0.100,23827.000,0.200,1333.000,0.300,968.000,0.500,1214.000,1.000,352.000,5.000,0
"04/03/08","05:05:57",27669.000,"cc",28342.311,6.00,6,0.100,23994.000,0.200,1266.000,0.300,981.000,0.500,1093.000,1.000,335.000,5.000,0
"04/03/08","05:06:03",27381.000,"cc",28338.982,6.00,6,0.100,23621.000,0.200,1307.000,0.300,969.000,0.500,1146.000,1.000,338.000,5.000,0
"04/03/08","05:06:09",27647.000,"cc",28361.121,6.00,6,0.100,23855.000,0.200,1306.000,0.300,949.000,0.500,1180.000,1.000,357.000,5.000,0
"04/03/08","05:06:15",27767.000,"cc",28363.818,6.00,6,0.100,23923.000,0.200,1323.000,0.300,996.000,0.500,1176.000,1.000,349.000,5.000,0
"04/03/08","05:06:21",27896.000,"cc",28305.740,6.00,6,0.100,24050.000,0.200,1354.000,0.300,970.000,0.500,1198.000,1.000,324.000,5.000,0
"04/03/08","05:06:27",27865.000,"cc",28303.906,6.00,6,0.100,23981.000,0.200,1322.000,0.300,1019.000,0.500,1208.000,1.000,335.000,5.000,0
"04/03/08","05:06:33",28050.000,"cc",28227.879,6.00,6,0.100,24201.000,0.200,1303.000,0.300,956.000,0.500,1233.000,1.000,357.000,5.000,0
"04/03/08","05:06:39",27542.000,"cc",28277.924,6.00,6,0.100,23859.000,0.200,1321.000,0.300,967.000,0.500,1054.000,1.000,341.000,5.000,0
"04/03/08","05:06:45",27819.000,"cc",28210.932,6.00,6,0.100,23952.000,0.200,1294.000,0.300,975.000,0.500,1222.000,1.000,376.000,5.000,0
"04/03/08","05:06:51",27804.000,"cc",28251.537,6.00,6,0.100,23907.000,0.200,1341.000,0.300,1034.000,0.500,1182.000,1.000,340.000,5.000,0
"04/03/08","05:06:57",27608.000,"cc",28282.398,6.00,6,0.100,23752.000,0.200,1370.000,0.300,922.000,0.500,1193.000,1.000,371.000,5.000,0
"04/03/08","05:07:03",27328.000,"cc",28272.029,6.00,6,0.100,23539.000,0.200,1335.000,0.300,972.000,0.500,1146.000,1.000,336.000,5.000,0
"04/03/08","05:07:09",27911.000,"cc",28356.336,6.00,6,0.100,23976.000,0.200,1361.000,0.300,1026.000,0.500,1198.000,1.000,350.000,5.000,0
"04/03/08","05:07:15",27401.000,"cc",28405.750,6.00,6,0.100,23721.000,0.200,1293.000,0.300,918.000,0.500,1104.000,1.000,365.000,5.000,0
"04/03/08","05:07:21",27692.000,"cc",28230.990,6.00,6,0.100,23713.000,0.200,1393.000,0.300,991.000,0.500,1228.000,1.000,367.000,5.000,0
"04/03/08","05:07:27",27871.000,"cc",28306.348,6.00,6,0.100,23926.000,0.200,1393.000,0.300,1014.000,0.500,1200.000,1.000,338.000,5.000,0
"04/03/08","05:07:33",27467.000,"cc",28340.307,6.00,6,0.100,23749.000,0.200,1330.000,0.300,931.000,0.500,1152.000,1.000,305.000,5.000,0
"04/03/08","05:07:39",28262.000,"cc",28226.201,6.00,6,0.100,23893.000,0.200,1534.000,0.300,1140.000,0.500,1307.000,1.000,388.000,5.000,0
"04/03/08","05:07:45",29259.000,"cc",28227.340,6.00,6,0.100,24510.000,0.200,1708.000,0.300,1240.000,0.500,1419.000,1.000,382.000,5.000,0
"04/03/08","05:07:51",27897.000,"cc",28298.922,6.00,6,0.100,23759.000,0.200,1343.000,0.300,1094.000,0.500,1291.000,1.000,410.000,5.000,0
"04/03/08","05:07:57",27617.000,"cc",28418.482,6.00,6,0.100,23699.000,0.200,1343.000,0.300,1020.000,0.500,1182.000,1.000,373.000,5.000,0
"04/03/08","05:08:03",27825.000,"cc",28376.647,6.00,6,0.100,23910.000,0.200,1371.000,0.300,990.000,0.500,1203.000,1.000,351.000,5.000,0
"04/03/08","05:08:09",27743.000,"cc",28329.742,6.00,6,0.100,23795.000,0.200,1379.000,0.300,1033.000,0.500,1209.000,1.000,327.000,5.000,0
"04/03/08","05:08:15",27801.000,"cc",28298.965,6.00,6,0.100,23849.000,0.200,1327.000,0.300,1038.000,0.500,1238.000,1.000,349.000,5.000,0
"04/03/08","05:08:21",28116.000,"cc",28163.141,6.00,6,0.100,23812.000,0.200,1497.000,0.300,1088.000,0.500,1316.000,1.000,403.000,5.000,0
"04/03/08","05:08:27",28377.000,"cc",28327.910,6.00,6,0.100,24118.000,0.200,1461.000,0.300,1153.000,0.500,1280.000,1.000,365.000,5.000,0
"04/03/08","05:08:33",28284.000,"cc",28322.406,6.00,6,0.100,24097.000,0.200,1448.000,0.300,1047.000,0.500,1333.000,1.000,359.000,5.000,0
"04/03/08","05:08:39",27557.000,"cc",28328.643,6.00,6,0.100,23539.000,0.200,1370.000,0.300,1025.000,0.500,1263.000,1.000,360.000,5.000,0
"04/03/08","05:08:45",28047.000,"cc",28319.545,6.00,6,0.100,23866.000,0.200,1462.000,0.300,1095.000,0.500,1263.000,1.000,361.000,5.000,0
"04/03/08","05:08:51",28245.000,"cc",28394.264,6.00,6,0.100,24071.000,0.200,1456.000,0.300,1072.000,0.500,1350.000,1.000,296.000,5.000,0
"04/03/08","05:08:57",28186.000,"cc",28295.834,6.00,6,0.100,24241.000,0.200,1330.000,0.300,1042.000,0.500,1221.000,1.000,352.000,5.000,0
"04/03/08","05:09:03",27879.000,"cc",28303.982,6.00,6,0.100,23888.000,0.200,1400.000,0.300,1052.000,0.500,1205.000,1.000,334.000,5.000,0
"04/03/08","05:09:09",28167.000,"cc",28309.520,6.00,6,0.100,23935.000,0.200,1407.000,0.300,1095.000,0.500,1336.000,1.000,394.000,5.000,0
"04/03/08","05:09:15",28065.000,"cc",28237.061,6.00,6,0.100,23908.000,0.200,1437.000,0.300,1075.000,0.500,1263.000,1.000,382.000,5.000,0
"04/03/08","05:09:21",28455.000,"cc",28374.998,6.00,6,0.100,23980.000,0.200,1588.000,0.300,1124.000,0.500,1378.000,1.000,385.000,5.000,0
"04/03/08","05:09:27",27610.000,"cc",28367.787,6.00,6,0.100,23676.000,0.200,1405.000,0.300,1029.000,0.500,1170.000,1.000,330.000,5.000,0
"04/03/08","05:09:33",27661.000,"cc",28395.857,6.00,6,0.100,23685.000,0.200,1346.000,0.300,1068.000,0.500,1194.000,1.000,368.000,5.000,0
"04/03/08","05:09:39",27619.000,"cc",28317.422,6.00,6,0.100,23500.000,0.200,1429.000,0.300,1070.000,0.500,1306.000,1.000,314.000,5.000,0
"04/03/08","05:09:45",27756.000,"cc",28238.139,6.00,6,0.100,23571.000,0.200,1540.000,0.300,1024.000,0.500,1277.000,1.000,344.000,5.000,0
"04/03/08","05:09:51",27475.000,"cc",28346.473,6.00,6,0.100,23566.000,0.200,1330.000,0.300,1028.000,0.500,1212.000,1.000,339.000,5.000,0
"04/03/08","05:09:57",27401.000,"cc",28294.955,6.00,6,0.100,23619.000,0.200,1412.000,0.300,951.000,0.500,1096.000,1.000,323.000,5.000,0
"04/03/08","05:10:03",27494.000,"cc",28373.297,6.00,6,0.100,23594.000,0.200,1325.000,0.300,1022.000,0.500,1233.000,1.000,320.000,5.000,0
"04/03/08","05:10:09",28136.000,"cc",28234.150,6.00,6,0.100,23926.000,0.200,1464.000,0.300,1129.000,0.500,1260.000,1.000,357.000,5.000,0
"04/03/08","05:10:15",27651.000,"cc",28424.986,6.00,6,0.100,23581.000,0.200,1429.000,0.300,1058.000,0.500,1249.000,1.000,334.000,5.000,0
"04/03/08","05:10:21",27193.000,"cc",28354.393,6.00,6,0.100,23476.000,0.200,1303.000,0.300,956.000,0.500,1134.000,1.000,324.000,5.000,0
"04/03/08","05:10:27",27765.000,"cc",28215.625,6.00,6,0.100,23630.000,0.200,1454.000,0.300,1049.000,0.500,1261.000,1.000,371.000,5.000,0
"04/03/08","05:10:33",27601.000,"cc",28307.906,6.00,6,0.100,23654.000,0.200,1361.000,0.300,1026.000,0.500,1210.000,1.000,350.000,5.000,0
"04/03/08","05:10:39",28254.000,"cc",28293.375,6.00,6,0.100,23983.000,0.200,1532.000,0.300,1152.000,0.500,1251.000,1.000,336.000,5.000,0
"04/03/08","05:10:45",27697.000,"cc",28350.469,6.00,6,0.100,23725.000,0.200,1387.000,0.300,1024.000,0.500,1224.000,1.000,337.000,5.000,0
"04/03/08","05:10:51",27520.000,"cc",28353.432,6.00,6,0.100,23638.000,0.200,1384.000,0.300,981.000,0.500,1192.000,1.000,325.000,5.000,0
"04/03/08","05:10:57",27458.000,"cc",28321.025,6.00,6,0.100,23653.000,0.200,1344.000,0.300,983.000,0.500,1182.000,1.000,296.000,5.000,0
"04/03/08","05:11:03",27380.000,"cc",28279.588,6.00,6,0.100,23569.000,0.200,1317.000,0.300,987.000,0.500,1172.000,1.000,335.000,5.000,0
"04/03/08","05:11:09",27552.000,"cc",28321.914,6.00,6,0.100,23649.000,0.200,1330.000,0.300,1010.000,0.500,1220.000,1.000,343.000,5.000,0
"04/03/08","05:11:15",27425.000,"cc",28241.625,6.00,6,0.100,23555.000,0.200,1306.000,0.300,1003.000,0.500,1236.000,1.000,325.000,5.000,0
"04/03/08","05:11:21",28256.000,"cc",28281.854,6.00,6,0.100,23879.000,0.200,1571.000,0.300,1167.000,0.500,1283.000,1.000,356.000,5.000,0
"04/03/08","05:11:27",28350.000,"cc",28427.426,6.00,6,0.100,24140.000,0.200,1538.000,0.300,1098.000,0.500,1245.000,1.000,329.000,5.000,0
"04/03/08","05:11:33",26916.000,"cc",28393.768,6.00,6,0.100,23111.000,0.200,1296.000,0.300,1013.000,0.500,1187.000,1.000,309.000,5.000,0
"04/03/08","05:11:39",26679.000,"cc",28203.648,6.00,6,0.100,23092.000,0.200,1288.000,0.300,912.000,0.500,1113.000,1.000,274.000,5.000,0
"04/03/08","05:11:45",27578.000,"cc",28283.992,6.00,6,0.100,23469.000,0.200,1450.000,0.300,1046.000,0.500,1267.000,1.000,346.000,5.000,0
"04/03/08","05:11:51",27887.000,"cc",28380.395,6.00,6,0.100,23975.000,0.200,1394.000,0.300,1022.000,0.500,1191.000,1.000,305.000,5.000,0
"04/03/08","05:11:57",27774.000,"cc",28292.273,6.00,6,0.100,23714.000,0.200,1414.000,0.300,1072.000,0.500,1248.000,1.000,326.000,5.000,0
"04/03/08","05:12:03",27539.000,"cc",28297.266,6.00,6,0.100,23558.000,0.200,1316.000,0.300,1113.000,0.500,1212.000,1.000,340.000,5.000,0
"04/03/08","05:12:09",27380.000,"cc",28269.410,6.00,6,0.100,23583.000,0.200,1398.000,0.300,983.000,0.500,1095.000,1.000,321.000,5.000,0
"04/03/08","05:12:15",27469.000,"cc",28268.750,6.00,6,0.100,23609.000,0.200,1359.000,0.300,994.000,0.500,1147.000,1.000,360.000,5.000,0
"04/03/08","05:12:21",27850.000,"cc",28422.625,6.00,6,0.100,23710.000,0.200,1444.000,0.300,1075.000,0.500,1268.000,1.000,353.000,5.000,0
"04/03/08","05:12:27",27731.000,"cc",28314.447,6.00,6,0.100,23835.000,0.200,1346.000,0.300,995.000,0.500,1203.000,1.000,352.000,5.000,0
"04/03/08","05:12:33",27272.000,"cc",28344.900,6.00,6,0.100,23520.000,0.200,1382.000,0.300,915.000,0.500,1137.000,1.000,318.000,5.000,0
"04/03/08","05:12:39",27166.000,"cc",28390.781,6.00,6,0.100,23359.000,0.200,1341.000,0.300,959.000,0.500,1163.000,1.000,344.000,5.000,0
"04/03/08","05:12:45",27516.000,"cc",28264.578,6.00,6,0.100,23619.000,0.200,1355.000,0.300,960.000,0.500,1219.000,1.000,363.000,5.000,0
"04/03/08","05:12:51",28710.000,"cc",28300.115,6.00,6,0.100,24204.000,0.200,1642.000,0.300,1172.000,0.500,1368.000,1.000,324.000,5.000,0
"04/03/08","05:12:57",27812.000,"cc",28279.209,6.00,6,0.100,23799.000,0.200,1413.000,0.300,1031.000,0.500,1243.000,1.000,326.000,5.000,0
"04/03/08","05:13:03",28411.000,"cc",28332.662,6.00,6,0.100,23940.000,0.200,1571.000,0.300,1192.000,0.500,1348.000,1.000,360.000,5.000,0
"04/03/08","05:13:09",28118.000,"cc",28229.141,6.00,6,0.100,24067.000,0.200,1409.000,0.300,1112.000,0.500,1222.000,1.000,308.000,5.000,0
"04/03/08","05:13:15",27595.000,"cc",28308.912,6.00,6,0.100,23766.000,0.200,1347.000,0.300,975.000,0.500,1189.000,1.000,318.000,5.000,0
"04/03/08","05:13:21",27611.000,"cc",28342.342,6.00,6,0.100,23743.000,0.200,1338.000,0.300,1006.000,0.500,1174.000,1.000,350.000,5.000,0
"04/03/08","05:13:27",28355.000,"cc",28324.887,6.00,6,0.100,24167.000,0.200,1449.000,0.300,1094.000,0.500,1296.000,1.000,349.000,5.000,0
"04/03/08","05:13:33",27821.000,"cc",28357.537,6.00,6,0.100,23817.000,0.200,1400.000,0.300,1103.000,0.500,1186.000,1.000,315.000,5.000,0
"04/03/08","05:13:39",27878.000,"cc",28356.361,6.00,6,0.100,23830.000,0.200,1434.000,0.300,1029.000,0.500,1265.000,1.000,320.000,5.000,0
"04/03/08","05:13:45",27901.000,"cc",28313.504,6.00,6,0.100,23968.000,0.200,1364.000,0.300,1051.000,0.500,1194.000,1.000,324.000,5.000,0
"04/03/08","05:13:51",28656.000,"cc",28306.414,6.00,6,0.100,24200.000,0.200,1573.000,0.300,1172.000,0.500,1366.000,1.000,345.000,5.000,0
"04/03/08","05:13:57",27859.000,"cc",28228.656,6.00,6,0.100,23830.000,0.200,1403.000,0.300,1052.000,0.500,1238.000,1.000,336.000,5.000,0
"04/03/08","05:14:03",27748.000,"cc",28286.772,6.00,6,0.100,23675.000,0.200,1399.000,0.300,1084.000,0.500,1249.000,1.000,341.000,5.000,0
"04/03/08","05:14:09",28500.000,"cc",28348.152,6.00,6,0.100,23938.000,0.200,1655.000,0.300,1205.000,0.500,1340.000,1.000,362.000,5.000,0
"04/03/08","05:14:15",27453.000,"cc",28290.787,6.00,6,0.100,23611.000,0.200,1404.000,0.300,975.000,0.500,1146.000,1.000,317.000,5.000,0
"04/03/08","05:14:21",27836.000,"cc",28352.299,6.00,6,0.100,23761.000,0.200,1446.000,0.300,1076.000,0.500,1230.000,1.000,323.000,5.000,0
"04/03/08","05:14:27",27871.000,"cc",28267.379,6.00,6,0.100,23861.000,0.200,1422.000,0.300,1030.000,0.500,1232.000,1.000,326.000,5.000,0
"04/03/08","05:14:33",27752.000,"cc",28362.000,6.00,6,0.100,23869.000,0.200,1353.000,0.300,988.000,0.500,1228.000,1.000,314.000,5.000,0
"04/03/08","05:14:39",27912.000,"cc",28290.006,6.00,6,0.100,23841.000,0.200,1500.000,0.300,983.000,0.500,1244.000,1.000,344.000,5.000,0
"04/03/08","05:14:45",28382.000,"cc",28290.565,6.00,6,0.100,24185.000,0.200,1500.000,0.300,1114.000,0.500,1275.000,1.000,308.000,5.000,0
"04/03/08","05:14:51",28371.000,"cc",28365.465,6.00,6,0.100,24099.000,0.200,1572.000,0.300,1099.000,0.500,1261.000,1.000,340.000,5.000,0
"04/03/08","05:14:57",28331.000,"cc",28330.836,6.00,6,0.100,24343.000,0.200,1389.000,0.300,1060.000,0.500,1198.000,1.000,341.000,5.000,0
"04/03/08","05:15:03",27779.000,"cc",28310.957,6.00,6,0.100,23853.000,0.200,1430.000,0.300,1028.000,0.500,1184.000,1.000,284.000,5.000,0
"04/03/08","05:15:09",28160.000,"cc",28259.111,6.00,6,0.100,24004.000,0.200,1476.000,0.300,1076.000,0.500,1260.000,1.000,344.000,5.000,0
"04/03/08","05:15:15",28612.000,"cc",28360.826,6.00,6,0.100,24333.000,0.200,1576.000,0.300,1070.000,0.500,1309.000,1.000,324.000,5.000,0
"04/03/08","05:15:21",27860.000,"cc",28335.984,6.00,6,0.100,23939.000,0.200,1345.000,0.300,1015.000,0.500,1214.000,1.000,347.000,5.000,0
"04/03/08","05:15:27",27824.000,"cc",28337.367,6.00,6,0.100,23974.000,0.200,1355.000,0.300,1023.000,0.500,1147.000,1.000,325.000,5.000,0
"04/03/08","05:15:33",28033.000,"cc",28410.713,6.00,6,0.100,24032.000,0.200,1455.000,0.300,1049.000,0.500,1191.000,1.000,306.000,5.000,0
"04/03/08","05:15:39",28299.000,"cc",28294.672,6.00,6,0.100,24105.000,0.200,1498.000,0.300,1093.000,0.500,1254.000,1.000,349.000,5.000,0
"04/03/08","05:15:45",28498.000,"cc",28344.561,6.00,6,0.100,24277.000,0.200,1568.000,0.300,1098.000,0.500,1257.000,1.000,298.000,5.000,0
"04/03/08","05:15:51",28033.000,"cc",28379.832,6.00,6,0.100,24089.000,0.200,1412.000,0.300,1033.000,0.500,1151.000,1.000,348.000,5.000,0
"04/03/08","05:15:57",28059.000,"cc",28253.125,6.00,6,0.100,24053.000,0.200,1458.000,0.300,1014.000,0.500,1229.000,1.000,305.000,5.000,0
"04/03/08","05:16:03",28130.000,"cc",28348.828,6.00,6,0.100,24012.000,0.200,1432.000,0.300,1079.000,0.500,1297.000,1.000,310.000,5.000,0
"04/03/08","05:16:09",26750.000,"cc",28368.848,6.00,6,0.100,23095.000,0.200,1295.000,0.300,933.000,0.500,1112.000,1.000,315.000,5.000,0
"04/03/08","05:16:15",27489.000,"cc",28146.299,6.00,6,0.100,23546.000,0.200,1397.000,0.300,962.000,0.500,1261.000,1.000,323.000,5.000,0
"04/03/08","05:16:21",27654.000,"cc",28241.025,6.00,6,0.100,23894.000,0.200,1320.000,0.300,1005.000,0.500,1156.000,1.000,279.000,5.000,0
"04/03/08","05:16:27",28282.000,"cc",28229.691,6.00,6,0.100,23984.000,0.200,1500.000,0.300,1100.000,0.500,1349.000,1.000,349.000,5.000,0